View from above orbital plane
|
View from above satellite
|
Ground track
|
The orbit data is extracted from the following two-line orbital elements,
1 07530U 74089B 21015.90011920 -.00000047 00000-0 -10862-4 0 9998
2 07530 101.8335 350.6949 0012150 316.5168 58.4297 12.53646919112615
Epoch (UTC): | 15 January 2021 21:36:10 |
Eccentricity: | 0.0012150 |
inclination: | 101.8335° |
perigee height: | 1440 km |
apogee height: | 1459 km |
right ascension of ascending node: | 350.6949° |
argument of perigee: | 316.5168° |
revolutions per day: | 12.53646919 |
mean anomaly at epoch: | 58.4297° |
orbit number at epoch: | 11261 |
The dashed part of the orbit path shows where the satellite is in the earth's shadow,
|
|